Regional Weather Roundup
Issued by NWS

Home | Current Version | Previous Version | Graphics & Text | Print | Product List | Glossary On
Versions: 1 2 3 4 5 6 7 8 9 10 11 12 13 14 15 16 17 18 19 20 21 22 23 24 25 26 27 28 29 30 31 32 33 34 35 36 37 38 39 40 41 42 43 44 45 46 47 48 49 50
607
ASUS45 KSLC 211810
RWRUT

UTAH REGIONAL WEATHER ROUNDUP
NATIONAL WEATHER SERVICE SALT LAKE CITY UT
1100 AM MST WED FEB 21 2018

UTZ001>011-023>025-211900-

NORTHERN UTAH

CITY           SKY/WX    TMP DP  RH WIND       PRES   REMARKS
BRIGHAM CITY     N/A     21  11  65 CALM      30.18S
DUGWAY         PTSUNNY   19  10  69 SE6       30.17S WCI  10
6HR MIN TEMP:   3; 6HR MAX TEMP:  20;

HILL AFB       PTSUNNY   16   2  54 E16       30.13F WCI   0
LOGAN            N/A     12   4  70 NW6       30.18S WCI   3
OGDEN          CLOUDY    22   4  46 CALM      30.15S
SALT LAKE CITY PTSUNNY   28   7  41 CALM      30.16F
TOOELE VALLEY    N/A     21  10  63 S10       30.16F WCI  10
WENDOVER         N/A     23  12  62 VRB5      30.16F WCI  17
HEBER CITY       N/A     10   3  72 CALM      30.13S
WEST JORDAN      N/A     21  10  63 S10       30.15F WCI  10

$$

UTZ011>015-024>027-211900-

CENTRAL/NORTHEAST UTAH

CITY           SKY/WX    TMP DP  RH WIND       PRES   REMARKS
PROVO AIRPORT    N/A     18   9  68 W3        30.18F
MOAB/CANYONLAN   N/A     31  11  43 VRB5      30.12F WCI  26
DELTA            N/A     14  12  92 CALM      30.13S
PRICE          PTSUNNY   22  -3  33 S3        30.10S
VERNAL           N/A     16   6  65 CALM      30.18F

$$

UTZ013>016-019>022-027-211900-

SOUTHERN UTAH

CITY           SKY/WX    TMP DP  RH WIND       PRES   REMARKS
BRYCE CANYON     N/A     22   3  44 SE10G18   30.00F WCI  11
CEDAR CITY       N/A     21   8  57 NW5       30.03F WCI  15
MILFORD        CLOUDY    18  11  74 N5        30.09S WCI  11
ST GEORGE        N/A     35  12  38 CALM      30.13F
HANKSVILLE       N/A     30   5  34 NW3       30.18F
BLANDING         N/A     31   8  37 SE10G18   30.16S WCI  22

$$

REGIONAL REPORTS     COLORADO/ARIZONA

CITY           SKY/WX    TMP DP  RH WIND       PRES   REMARKS
CRAIG, CO        N/A      5  -2  72 CALM      30.14S
GRAND JUNCTION   N/A     28  11  48 SE13      30.14F WCI  17
RIFLE, CO        N/A     19   6  57 CALM      30.14F
MONTROSE, CO     N/A     22  10  60 NW6       30.15F WCI  14
CORTEZ, CO       N/A     36  14  40 S15G24    30.09F WCI  27
COLORADO CITY    N/A     37   3  23 E5        30.08S WCI  34
PAGE, AZ         N/A     33   7  33 N3        30.09F
GRAND CANYON   PTSUNNY   28   5  37 VRB3      30.02S
KINGMAN, AZ    CLOUDY    39   3  22 NW5       30.09R
FLAGSTAFF, AZ    N/A     27   8  44 S15G24    30.00S WCI  15

$$

REGIONAL REPORTS    NEVADA/IDAHO/WYOMING

CITY           SKY/WX    TMP DP  RH WIND       PRES   REMARKS
LAS VEGAS, NV  PTSUNNY   44   1  16 CALM      30.13S
ELY, NY          N/A     25   5  42 NE8       30.03F WCI  16
ELKO, NV       PTSUNNY   21   3  45 VRB3      30.10S
POCATELLO, ID    N/A     25  11  55 CALM      30.14F
BURLEY, ID       N/A     21   8  57 E5        30.12F WCI  15
EVANSTON, WY   CLOUDY     7  -3  64 SE6       30.04F WCI  -3
ROCK SPRINGS,    N/A      1  -3  83 CALM      30.09S

$$




USA.gov is the U.S. government's official web portal to all federal, state and local government web resources and services.